Deelen, Netherlands

9:52 AM CEST on March 28, 2017 (GMT +0200)
Deelen Air Base

Weather History for EHDL - May, 2014

Change the Weather History Date:

Thursday, May 15, 2014

  Actual Average Record
Temperature  
Mean Temperature 44 °F -  
Max Temperature 57 °F 65 °F 84 °F (2000)
Min Temperature 32 °F 50 °F 32 °F (2014)
Degree Days  
Heating Degree Days 20    
Moisture  
Dew Point 39 °F    
Average Humidity 74    
Maximum Humidity 100    
Minimum Humidity 46    
Precipitation  
Precipitation 0.00 in - - ()
Sea Level Pressure  
Sea Level Pressure 30.56 in    
Wind  
Wind Speed 3 mph ()    
Max Wind Speed 9 mph    
Max Gust Speed -    
Visibility 8.8 miles    
Events      
Averages and records for this station are not official NWS values.
T = Trace of Precipitation, MM = Missing Value Source: Averaged Metar Reports

Daily Weather History Graph

Daily Weather History Graph

Search for Another Location

Airport or City:

Trip Planner

Search our weather history database for the weather conditions in past years. The results will help you decide how hot, cold, wet, or windy it might be!

Date:

Astronomy

May. 15, 2014 Rise Set
Actual Time 5:42 AM CEST 9:24 PM CEST
Civil Twilight 5:00 AM CEST 10:06 PM CEST
Nautical Twilight 4:02 AM CEST 11:05 PM CEST
Astronomical Twilight 2:31 AM CEST 12:40 AM CEST
Moon 10:14 PM CEST (5/15) 6:19 AM CEST (5/15)
Length of Visible Light 17h 06m
Length of Day
15h 41m
Waxing Gibbous, 99% of the Moon is Illuminated
May 15
Waxing Gibbous
May 21
Last Quarter
May 28
New
Jun 5
First Quarter
Jun 13
Full

Hourly Weather History & Observations

Time (CEST) Temp. Windchill Dew Point Humidity Pressure Visibility Wind Dir Wind Speed Gust Speed Precip Events Conditions
12:00 AM 41 °F - 38 °F 86% 30.50 in 16 mi North 2.2 mph - -   Scattered Clouds
12:25 AM 39.2 °F - 37.4 °F 93% 30.48 in 6.2 mi NW 1.2 mph - N/A   Unknown
12:55 AM 37.4 °F - 35.6 °F 93% 30.51 in 6.2 mi Calm Calm - N/A   Unknown
1:00 AM 38 °F - 37 °F 93% 30.51 in 14 mi Calm Calm - -   Scattered Clouds
1:25 AM 37.4 °F - 37.4 °F 100% 30.51 in 6.2 mi NW 1.2 mph - N/A   Scattered Clouds
1:55 AM 37.4 °F - 35.6 °F 93% 30.51 in 6.2 mi NW 1.2 mph - N/A   Partly Cloudy
2:00 AM 36 °F - 36 °F 99% 30.52 in 11 mi Calm Calm - -   Partly Cloudy
2:25 AM 37.4 °F - 35.6 °F 93% 30.51 in 6.2 mi NW 1.2 mph - N/A   Partly Cloudy
2:55 AM 35.6 °F - 33.8 °F 93% 30.51 in 6.2 mi NW 1.2 mph - N/A   Partly Cloudy
3:00 AM 35 °F - 35 °F 97% 30.52 in 9 mi Calm Calm - -  
3:25 AM 35.6 °F - 35.6 °F 100% 30.51 in 6.2 mi Calm Calm - N/A   Partly Cloudy
3:55 AM 33.8 °F - 33.8 °F 100% 30.51 in 6.2 mi NW 1.2 mph - N/A   Partly Cloudy
4:00 AM 33 °F - 33 °F 97% 30.53 in 9 mi Calm Calm - -   Scattered Clouds
4:25 AM 33.8 °F - 32.0 °F 93% 30.51 in 6.2 mi NW 1.2 mph - N/A   Partly Cloudy
4:55 AM 33.8 °F - 32.0 °F 93% 30.51 in 6.2 mi NW 1.2 mph - N/A   Unknown
5:00 AM 33 °F - 33 °F 98% 30.54 in 12 mi Calm Calm - -   Scattered Clouds
5:25 AM 32.0 °F - 32.0 °F 100% 30.51 in 6.2 mi NW 1.2 mph - N/A   Partly Cloudy
5:55 AM 33.8 °F - 33.8 °F 100% 30.54 in 6.2 mi NW 1.2 mph - N/A   Overcast
6:00 AM 34 °F - 34 °F 98% 30.54 in 13 mi 2.2 mph - -   Overcast
6:25 AM 33.8 °F - 33.8 °F 100% 30.54 in 6.2 mi East 1.2 mph - N/A   Overcast
6:55 AM 33.8 °F - 33.8 °F 100% 30.54 in 6.2 mi WSW 1.2 mph - N/A   Partly Cloudy
7:00 AM 35 °F - 34 °F 95% 30.56 in 14 mi SW 2.2 mph - -   Scattered Clouds
7:25 AM 35.6 °F - 33.8 °F 93% 30.54 in 6.2 mi Calm Calm - N/A   Partly Cloudy
7:55 AM 41.0 °F - 41.0 °F 100% 30.54 in 6.2 mi North 1.2 mph - N/A   Mostly Cloudy
8:00 AM 43 °F - 39 °F 81% 30.57 in 12 mi 2.2 mph - -   Partly Cloudy
8:25 AM 46.4 °F 44.3 °F 41.0 °F 81% 30.57 in 6.2 mi NNW 4.6 mph - N/A   Overcast
8:55 AM 48.2 °F - 39.2 °F 71% 30.57 in 6.2 mi NNW 4.6 mph - N/A   Overcast
9:00 AM 48 °F - 40 °F 65% 30.58 in 17 mi North 6.7 mph - -   Overcast
9:25 AM 48.2 °F - 37.4 °F 66% 30.57 in 6.2 mi North 8.1 mph - N/A   Overcast
9:46 AM 50.0 °F - 37.4 °F 62% 30.57 in 6.2 mi North 8.1 mph - N/A   Overcast
9:55 AM 50.0 °F - 37.4 °F 62% 30.57 in 6.2 mi North 8.1 mph - N/A   Overcast
10:00 AM 49 °F - 37 °F 54% 30.59 in 16 mi North 8.9 mph - -   Overcast
10:25 AM 50.0 °F - 37.4 °F 62% 30.57 in 6.2 mi NNE 9.2 mph - N/A   Overcast
10:55 AM 50.0 °F - 37.4 °F 62% 30.57 in 6.2 mi NNE 9.2 mph - N/A   Overcast
11:00 AM 50 °F - 38 °F 53% 30.60 in 19 mi NNE 8.9 mph - -   Overcast
11:25 AM 50.0 °F - 37.4 °F 62% 30.60 in 6.2 mi North 9.2 mph - N/A   Overcast
11:55 AM 51.8 °F - 39.2 °F 62% 30.60 in 6.2 mi North 6.9 mph - N/A   Overcast
12:00 PM 51 °F - 38 °F 51% 30.61 in 22 mi North 6.7 mph - -   Overcast
12:25 PM 51.8 °F - 39.2 °F 62% 30.60 in 6.2 mi NNW 8.1 mph - N/A   Overcast
12:55 PM 51.8 °F - 39.2 °F 62% 30.60 in 6.2 mi North 6.9 mph - N/A   Overcast
1:00 PM 52 °F - 39 °F 50% 30.61 in 19 mi NNE 8.9 mph - -   Overcast
1:25 PM 53.6 °F - 39.2 °F 58% 30.60 in 6.2 mi NNE 6.9 mph - N/A   Overcast
1:55 PM 53.6 °F - 39.2 °F 58% 30.57 in 6.2 mi NW 4.6 mph - N/A   Overcast
2:00 PM 54 °F - 40 °F 47% 30.60 in 22 mi NNW 6.7 mph - -   Partly Cloudy
2:25 PM 55.4 °F - 41.0 °F 58% 30.57 in 6.2 mi NNW 5.8 mph - N/A   Overcast
2:55 PM 55.4 °F - 39.2 °F 54% 30.57 in 6.2 mi North 5.8 mph - N/A   Overcast
3:00 PM 55 °F - 41 °F 47% 30.60 in 17 mi North 4.5 mph - -   Overcast
3:25 PM 55.4 °F - 41.0 °F 58% 30.57 in 6.2 mi North 4.6 mph - N/A   Overcast
3:43 PM 55.4 °F - 41.0 °F 58% 30.57 in 6.2 mi NNW 5.8 mph - N/A   Overcast
3:55 PM 55.4 °F - 42.8 °F 63% 30.57 in 6.2 mi NE 2.3 mph - N/A   Overcast
4:00 PM 55 °F - 41 °F 47% 30.60 in 19 mi NE 2.2 mph - -   Overcast
4:25 PM 55.4 °F - 42.8 °F 63% 30.57 in 6.2 mi ENE 3.5 mph - N/A   Overcast
4:55 PM 55.4 °F - 41.0 °F 58% 30.57 in 6.2 mi NNE 4.6 mph - N/A   Overcast
5:00 PM 56 °F - 41 °F 46% 30.59 in 22 mi NE 8.9 mph - -   Overcast
5:25 PM 55.4 °F - 41.0 °F 58% 30.57 in 6.2 mi NE 5.8 mph - N/A   Overcast
5:55 PM 57.2 °F - 41.0 °F 55% 30.57 in 6.2 mi NNE 5.8 mph - N/A   Overcast
6:00 PM 56 °F - 42 °F 48% 30.59 in 19 mi NNE 6.7 mph - -   Overcast
6:25 PM 57.2 °F - 42.8 °F 59% 30.57 in 6.2 mi NNE 5.8 mph - N/A   Overcast
6:55 PM 55.4 °F - 41.0 °F 58% 30.57 in 6.2 mi North 4.6 mph - N/A   Overcast
7:00 PM 56 °F - 42 °F 49% 30.59 in 19 mi NNE 6.7 mph - -   Overcast
7:25 PM 55.4 °F - 42.8 °F 63% 30.57 in 6.2 mi North 5.8 mph - N/A   Mostly Cloudy
7:55 PM 53.6 °F - 42.8 °F 67% 30.57 in 6.2 mi NNE 6.9 mph - N/A   Scattered Clouds
8:00 PM 54 °F - 42 °F 55% 30.59 in 25 mi North 6.7 mph - -   Partly Cloudy
9:00 PM 51 °F - 43 °F 66% 30.59 in 22 mi North 4.5 mph - -   Scattered Clouds
9:25 PM 48.2 °F - 42.8 °F 82% 30.57 in 6.2 mi North 4.6 mph - N/A   Unknown
9:55 PM 48.2 °F - 42.8 °F 82% 30.57 in 6.2 mi NNW 4.6 mph - N/A   Partly Cloudy
10:00 PM 49 °F - 43 °F 73% 30.60 in 19 mi NNW 4.5 mph - -   Scattered Clouds
10:25 PM 48.2 °F - 42.8 °F 82% 30.60 in 6.2 mi North 4.6 mph - N/A   Partly Cloudy
10:55 PM 48.2 °F - 42.8 °F 82% 30.60 in 6.2 mi North 4.6 mph - N/A   Partly Cloudy
11:00 PM 48 °F - 43 °F 78% 30.61 in 17 mi North 4.5 mph - -  
11:25 PM 48.2 °F - 42.8 °F 82% 30.60 in 6.2 mi North 3.5 mph - N/A   Partly Cloudy
11:55 PM 46.4 °F 45.2 °F 42.8 °F 87% 30.60 in 6.2 mi NNW 3.5 mph - N/A   Partly Cloudy